Sunshine Coast Airport Observation History
Time Wind Speed Temp Pressure Rel. Hum Rain
05/09:30pm WSW 3-5 kts 15.4°c 1026.0 hPa 90% 0.6mm
05/09:00pm S 3-5 kts 15.8°c 1026.0 hPa 88% 0.2mm
05/08:30pm WSW 5-7 kts 15.4°c 1025.9 hPa 87% 0.0mm
05/08:00pm SW 5-6 kts 15.3°c 1025.9 hPa 88% 0.0mm
05/07:30pm SW 6-7 kts 14.9°c 1025.8 hPa 87% 0.0mm
05/07:00pm SW 6-7 kts 15.3°c 1025.8 hPa 86% 0.0mm
05/06:30pm WSW 6-7 kts 15.4°c 1025.4 hPa 84% 0.0mm
05/06:00pm SW 6-7 kts 16.7°c 1025.0 hPa 80% 0.0mm
05/05:30pm S 7-8 kts 17.6°c 1024.9 hPa 77% 0.0mm
05/05:00pm S 7-9 kts 18.2°c 1024.6 hPa 74% 0.0mm
05/04:30pm S 9-14 kts 19.3°c 1024.6 hPa 70% 0.0mm
05/04:00pm SSE 10-15 kts 19.4°c 1024.4 hPa 70% 0.0mm
05/03:30pm SSE 12-16 kts 19.9°c 1024.4 hPa 67% 0.0mm
05/03:00pm SSE 11-16 kts 20.7°c 1024.5 hPa 66% 0.0mm
05/02:30pm SSE 14-17 kts 20.7°c 1024.7 hPa 65% 0.0mm
05/02:00pm SSE 14-20 kts 21.0°c 1024.8 hPa 65% 0.0mm
05/01:30pm S 13-17 kts 20.5°c 1025.1 hPa 63% 0.0mm
05/01:00pm SSE 11-15 kts 19.7°c 1025.7 hPa 66% 0.0mm
05/12:30pm S 12-17 kts 20.2°c 1026.0 hPa 67% 0.0mm
05/12:00pm S 8-12 kts 18.6°c 1026.5 hPa 75% 0.0mm
05/11:50am ESE 1-8 kts 17.4°c 1026.7 hPa 85% 0.0mm
05/11:30am SSE 8-13 kts 17.2°c 1027.2 hPa 83% 0.0mm
05/11:27am S 7-13 kts 17.6°c 1027.3 hPa 80% 0.0mm
05/11:00am SSE 12-16 kts 18.5°c 1027.5 hPa 71% 0.0mm
05/10:30am S 13-17 kts 19.2°c 1027.5 hPa 64% 0.0mm
05/10:00am S 12-16 kts 18.4°c 1027.8 hPa 64% 0.0mm
05/09:30am S 13-19 kts 17.2°c 1028.0 hPa 69% 0.0mm
05/09:00am S 13-18 kts 16.6°c 1027.9 hPa 67% 0.0mm
05/08:30am S 13-18 kts 16.8°c 1027.6 hPa 65% 0.0mm
05/08:00am S 11-17 kts 16.1°c 1027.4 hPa 66% 0.0mm
05/07:30am SSW 11-14 kts 15.7°c 1027.1 hPa 66% 0.0mm
05/07:00am S 11-17 kts 15.4°c 1026.9 hPa 68% 0.0mm
05/06:30am SSW 12-16 kts 15.2°c 1026.6 hPa 68% 0.0mm
05/06:00am SSW 11-16 kts 15.5°c 1026.4 hPa 67% 0.0mm
05/05:30am SSW 13-16 kts 15.3°c 1025.9 hPa 66% 0.0mm
05/05:00am S 14-18 kts 15.5°c 1025.7 hPa 65% 0.0mm
05/04:30am S 13-18 kts 15.8°c 1025.7 hPa 64% 0.0mm
05/04:00am SSW 12-17 kts 15.6°c 1025.6 hPa 66% 0.0mm
05/03:30am SSW 13-17 kts 15.8°c 1025.7 hPa 65% 0.0mm
05/03:00am S 12-17 kts 15.8°c 1025.8 hPa 65% 0.0mm
05/02:30am SSW 12-17 kts 15.6°c 1026.0 hPa 66% 0.0mm
05/02:00am SSW 10-15 kts 16.1°c 1026.3 hPa 65% 0.0mm
05/01:30am SSW 10-14 kts 16.1°c 1026.5 hPa 67% 0.0mm
05/01:00am SSW 8-11 kts 16.0°c 1026.7 hPa 70% 0.0mm
05/12:30am SW 7-9 kts 15.9°c 1027.2 hPa 76% 0.0mm
05/12:00am SSE 11-16 kts 16.1°c 1027.6 hPa 78% 0.0mm
Time Wind Speed Temp Pressure Rel. Hum Rain
04/11:30pm S 15-20 kts 15.5°c 1027.7 hPa 82% 0.0mm
04/11:00pm S 14-20 kts 16.2°c 1027.8 hPa 72% 0.0mm
04/10:30pm S 10-13 kts 16.7°c 1027.9 hPa 71% 0.0mm
04/10:00pm S 12-16 kts 16.5°c 1028.0 hPa 71% 0.0mm
04/09:30pm S 12-16 kts 16.6°c 1028.1 hPa 70% 0.0mm
04/09:00pm S 11-14 kts 16.5°c 1027.9 hPa 68% 0.0mm
04/08:30pm S 10-14 kts 16.4°c 1027.8 hPa 68% 0.0mm
04/08:00pm S 11-14 kts 16.5°c 1027.8 hPa 68% 0.0mm
04/07:30pm S 10-13 kts 16.7°c 1027.8 hPa 67% 0.0mm
04/07:00pm S 11-14 kts 17.2°c 1027.4 hPa 66% 0.0mm
04/06:30pm S 13-16 kts 17.7°c 1027.2 hPa 65% 0.0mm
04/06:00pm S 13-18 kts 17.9°c 1027.0 hPa 65% 0.0mm
04/05:30pm S 12-17 kts 17.7°c 1026.8 hPa 68% 0.0mm
04/05:00pm S 12-17 kts 18.0°c 1026.6 hPa 67% 0.0mm
04/04:30pm S 13-18 kts 17.9°c 1026.4 hPa 67% 0.0mm
04/04:00pm S 15-21 kts 18.5°c 1026.2 hPa 64% 0.0mm
04/03:30pm S 13-19 kts 19.3°c 1026.2 hPa 62% 0.0mm
04/03:00pm SSE 16-22 kts 19.5°c 1026.2 hPa 60% 0.0mm
04/02:30pm SSE 17-23 kts 20.3°c 1026.1 hPa 57% 0.0mm
04/02:00pm SSE 15-19 kts 20.2°c 1026.2 hPa 59% 0.0mm
04/01:30pm SSE 18-24 kts 20.1°c 1026.2 hPa 57% 0.0mm
04/01:00pm S 17-24 kts 20.4°c 1026.3 hPa 57% 0.0mm
04/12:30pm S 19-25 kts 20.1°c 1026.4 hPa 58% 0.0mm
04/12:00pm S 18-25 kts 19.9°c 1026.7 hPa 55% 0.0mm
04/11:30am S 16-23 kts 19.9°c 1027.1 hPa 54% 0.0mm
04/11:00am S 19-24 kts 19.1°c 1027.1 hPa 54% 0.0mm
04/10:48am S 17-27 kts 18.8°c 1027.3 hPa 54% 0.0mm
04/10:30am S 16-22 kts 18.5°c 1027.5 hPa 54% 0.0mm
04/10:02am S 16-26 kts 18.4°c 1027.5 hPa 54% 0.0mm
04/10:00am S 16-22 kts 18.4°c 1027.5 hPa 54% 0.0mm
04/09:30am S 16-22 kts 17.8°c 1027.6 hPa 51% 0.0mm
04/09:00am S 16-21 kts 17.1°c 1027.3 hPa 52% 0.0mm
04/08:30am S 13-18 kts 17.0°c 1026.8 hPa 49% 0.0mm
04/08:00am SSW 13-17 kts 16.1°c 1026.6 hPa 50% 0.0mm
04/07:30am SSW 11-14 kts 15.1°c 1026.6 hPa 53% 0.0mm
04/07:00am SSW 10-14 kts 14.2°c 1026.1 hPa 59% 0.0mm
04/06:30am SSW 12-15 kts 13.9°c 1025.8 hPa 61% 0.0mm
04/06:00am S 13-19 kts 13.8°c 1025.5 hPa 64% 0.0mm
04/05:30am S 14-19 kts 14.2°c 1025.0 hPa 64% 0.0mm
04/05:00am S 13-20 kts 14.3°c 1024.4 hPa 64% 0.0mm
04/04:30am S 14-20 kts 14.3°c 1023.9 hPa 64% 0.0mm
04/04:00am S 14-19 kts 14.8°c 1023.8 hPa 62% 0.0mm
04/03:30am S 15-21 kts 15.0°c 1024.0 hPa 60% 0.0mm
04/03:00am S 13-17 kts 15.2°c 1024.1 hPa 61% 0.0mm
04/02:30am SSW 12-17 kts 15.1°c 1024.0 hPa 62% 0.0mm
04/02:00am SSW 13-18 kts 15.5°c 1024.0 hPa 62% 0.0mm
04/01:30am SW 8-11 kts 14.6°c 1024.1 hPa 70% 0.0mm
04/01:00am SW 8-10 kts 14.0°c 1024.3 hPa 74% 0.0mm
04/12:30am SW 7-10 kts 12.5°c 1024.3 hPa 80% 0.0mm
04/12:00am SW 6-7 kts 11.6°c 1024.3 hPa 83% 0.0mm
Time Wind Speed Temp Pressure Rel. Hum Rain
03/11:30pm SW 6-7 kts 12.1°c 1024.4 hPa 80% 0.0mm
03/11:00pm SW 7-9 kts 12.3°c 1024.6 hPa 80% 0.0mm
03/10:30pm SW 6-7 kts 12.1°c 1024.7 hPa 81% 0.0mm
03/10:00pm SW 7 kts 11.7°c 1024.7 hPa 81% 0.0mm
03/09:30pm SW 6-7 kts 11.4°c 1024.6 hPa 84% 0.0mm
03/09:00pm SW 4-5 kts 10.8°c 1024.4 hPa 85% 0.0mm
03/08:30pm SW 4-5 kts 10.8°c 1024.1 hPa 85% 0.0mm
03/08:00pm WSW 4-10 kts 10.8°c 1023.8 hPa 86% 0.0mm
03/07:30pm WSW 3-4 kts 11.2°c 1023.3 hPa 82% 0.0mm
03/07:00pm WSW 4-5 kts 11.5°c 1022.7 hPa 80% 0.0mm
03/06:30pm WSW 5 kts 12.2°c 1022.1 hPa 75% 0.0mm
03/06:00pm S 6-7 kts 15.5°c 1021.3 hPa 59% 0.0mm
03/05:30pm SSE 7-8 kts 16.2°c 1021.0 hPa 56% 0.0mm
03/05:00pm SSE 7-9 kts 17.6°c 1020.7 hPa 51% 0.0mm
03/04:30pm SE 8-12 kts 18.3°c 1020.4 hPa 49% 0.0mm
03/04:00pm SE 8-11 kts 18.8°c 1020.0 hPa 47% 0.0mm
03/03:30pm SSE 9-12 kts 19.2°c 1019.7 hPa 45% 0.0mm
03/03:00pm SE 10-12 kts 19.3°c 1019.6 hPa 48% 0.0mm
03/02:30pm S 10-15 kts 20.7°c 1019.4 hPa 33% 0.0mm
03/02:00pm S 11-15 kts 20.5°c 1019.4 hPa 32% 0.0mm
03/01:30pm S 12-15 kts 20.4°c 1019.4 hPa 32% 0.0mm
03/01:00pm S 12-15 kts 19.9°c 1019.6 hPa 32% 0.0mm
03/12:30pm S 9-13 kts 20.3°c 1020.0 hPa 33% 0.0mm
03/12:00pm SSW 3-6 kts 19.9°c 1020.2 hPa 36% 0.0mm
03/11:30am S 5-7 kts 19.5°c 1020.7 hPa 37% 0.0mm
03/11:00am SSW 6-10 kts 19.5°c 1020.9 hPa 35% 0.0mm
03/10:30am SW 8-12 kts 18.5°c 1021.3 hPa 36% 0.0mm
03/10:00am SW 8-11 kts 17.6°c 1021.4 hPa 40% 0.0mm
03/09:30am SW 7-10 kts 16.4°c 1021.6 hPa 43% 0.0mm
03/09:00am WSW 6-7 kts 15.4°c 1021.5 hPa 48% 0.0mm
03/08:30am W 4-6 kts 13.6°c 1021.3 hPa 55% 0.0mm
03/08:00am NNW 2-4 kts 11.9°c 1021.2 hPa 65% 0.0mm
03/07:30am N 4-5 kts 9.6°c 1021.0 hPa 75% 0.0mm
03/07:00am W 3-5 kts 6.9°c 1020.7 hPa 83% 0.0mm
03/06:30am W 7-11 kts 7.8°c 1020.4 hPa 75% 0.0mm
03/06:00am W 7-9 kts 5.3°c 1020.0 hPa 75% 0.0mm
03/05:30am SW 5-6 kts 7.0°c 1019.7 hPa 78% 0.0mm
03/05:00am WNW 5-7 kts 6.4°c 1019.3 hPa 79% 0.0mm
03/04:30am N 2-5 kts 5.6°c 1019.4 hPa 86% 0.0mm
03/04:00am NE 1-4 kts 5.4°c 1019.4 hPa 79% 0.0mm
03/03:30am CALM 0 kts 7.7°c 1019.5 hPa 74% 0.0mm
03/03:00am WSW 8-11 kts 8.4°c 1019.7 hPa 69% 0.0mm
03/02:30am SSW 4-5 kts 8.4°c 1019.9 hPa 72% 0.0mm
03/02:00am W 6-7 kts 8.0°c 1020.0 hPa 70% 0.0mm
03/01:30am NNW 5-6 kts 8.8°c 1020.2 hPa 65% 0.0mm
03/01:00am N 5-7 kts 10.0°c 1020.5 hPa 58% 0.0mm
03/12:30am WNW 8-12 kts 11.3°c 1020.7 hPa 56% 0.0mm
03/12:00am NNW 6-9 kts 8.8°c 1020.7 hPa 63% 0.0mm